Terminal Aerodrome Forecast
Issued by NWS Cleveland, OH

Home | Current Version | Previous Version | Text Only | Print | Product List | Glossary On
Versions: 1 2 3 4 5 6 7 8 9 10 11 12 13 14 15 16 17 18 19 20 21 22
000
FTUS41 KCLE 220800 AAA
TAFCAK
TAF AMD
KCAK 220858Z 2209/2306 32012G18KT P6SM SCT015 OVC030
      TEMPO 2209/2212 BKN015
     FM221800 31007KT P6SM BKN040=

USA.gov is the U.S. government's official web portal to all federal, state and local government web resources and services.